When you browse on this site, cookies collect data to enhance your experience and personalize the content and advertising you see.
Visit our Privacy Policy to learn more. By continuing to use the site, you agree to this use of cookies and data.
  • In United Kingdom
  • List of Countries
  • For 7 days
  • Water Temperature
  • Weather Map
  • Weather Widgets
  • user-avatar
    Login

    Hourly Weather Razgrad

    Today, 20 January, Monday

    Time Temperature Precipitation Wind Pressure Humidity
    00:00 -2°C° 0 mm 2 mps 753 mmHg 83%
    01:00 -2°C° 0 mm 2 mps 754 mmHg 83%
    02:00 -2°C° 0 mm 2 mps 754 mmHg 84%
    03:00 -2°C° 0 mm 2 mps 754 mmHg 85%
    04:00 -2°C° 0 mm 2 mps 755 mmHg 87%
    05:00 -2°C° 0 mm 2 mps 755 mmHg 88%
    06:00 -2°C° 0.1 mm 3 mps 756 mmHg 88%
    07:00 -2°C° 0.1 mm 3 mps 756 mmHg 87%
    08:00 -2°C° 0.1 mm 3 mps 757 mmHg 86%
    09:00 -1°C° 0 mm 3 mps 757 mmHg 81%
    10:00 -2°C° 0 mm 4 mps 757 mmHg 76%
    11:00 -1°C° 0 mm 4 mps 758 mmHg 70%
    12:00 -1°C° 0 mm 4 mps 758 mmHg 69%
    13:00 -1°C° 0 mm 4 mps 758 mmHg 67%
    14:00 0°C° 0 mm 3 mps 758 mmHg 65%
    15:00 0°C° 0 mm 3 mps 758 mmHg 67%
    16:00 0°C° 0 mm 3 mps 758 mmHg 69%
    17:00 +1°C° 0 mm 2 mps 758 mmHg 71%
    18:00 -1°C° 0 mm 2 mps 759 mmHg 74%
    19:00 -1°C° 0 mm 2 mps 759 mmHg 77%
    20:00 -2°C° 0 mm 2 mps 759 mmHg 80%
    21:00 -2°C° 0 mm 2 mps 759 mmHg 80%
    22:00 -2°C° 0 mm 2 mps 760 mmHg 81%
    23:00 -2°C° 0 mm 2 mps 760 mmHg 82%

    Tomorrow, 21 January, Tuesday

    Time Temperature Precipitation Wind Pressure Humidity
    00:00 -2°C° 0 mm 2 mps 760 mmHg 83%
    01:00 -2°C° 0 mm 2 mps 760 mmHg 84%
    02:00 -2°C° 0 mm 2 mps 759 mmHg 84%
    03:00 -3°C° 0 mm 2 mps 759 mmHg 85%
    04:00 -3°C° 0 mm 2 mps 759 mmHg 86%
    05:00 -3°C° 0 mm 2 mps 759 mmHg 86%
    06:00 -3°C° 0 mm 2 mps 759 mmHg 86%
    07:00 -3°C° 0 mm 2 mps 759 mmHg 87%
    08:00 -3°C° 0 mm 2 mps 759 mmHg 87%
    09:00 -2°C° 0 mm 3 mps 759 mmHg 80%
    10:00 -1°C° 0 mm 3 mps 758 mmHg 74%
    11:00 -1°C° 0 mm 4 mps 758 mmHg 67%
    12:00 0°C° 0 mm 4 mps 758 mmHg 65%
    13:00 +1°C° 0 mm 4 mps 757 mmHg 62%
    14:00 +3°C° 0 mm 4 mps 757 mmHg 59%
    15:00 +2°C° 0 mm 3 mps 756 mmHg 63%
    16:00 +1°C° 0 mm 3 mps 756 mmHg 67%
    17:00 +1°C° 0 mm 2 mps 756 mmHg 71%
    18:00 +1°C° 0 mm 2 mps 756 mmHg 73%
    19:00 -1°C° 0 mm 2 mps 756 mmHg 75%
    20:00 -1°C° 0 mm 2 mps 756 mmHg 76%
    21:00 -1°C° 0 mm 2 mps 755 mmHg 76%
    22:00 -1°C° 0 mm 2 mps 755 mmHg 75%
    23:00 -1°C° 0 mm 2 mps 755 mmHg 75%

    Day after tomorrow, 22 January, Wednesday

    Time Temperature Precipitation Wind Pressure Humidity
    00:00 -1°C° 0 mm 2 mps 754 mmHg 74%
    01:00 -1°C° 0 mm 2 mps 754 mmHg 74%
    02:00 -2°C° 0 mm 2 mps 754 mmHg 73%
    03:00 -2°C° 0 mm 2 mps 753 mmHg 74%
    04:00 -2°C° 0 mm 2 mps 753 mmHg 74%
    05:00 -2°C° 0 mm 2 mps 752 mmHg 74%
    06:00 -2°C° 0 mm 2 mps 752 mmHg 73%
    07:00 -2°C° 0 mm 2 mps 752 mmHg 72%
    08:00 -2°C° 0 mm 2 mps 751 mmHg 71%
    09:00 +1°C° 0 mm 2 mps 751 mmHg 63%
    10:00 +3°C° 0 mm 2 mps 751 mmHg 55%
    11:00 +4°C° 0 mm 3 mps 750 mmHg 47%
    12:00 +5°C° 0 mm 3 mps 750 mmHg 44%
    13:00 +5°C° 0 mm 3 mps 749 mmHg 42%
    14:00 +7°C° 0 mm 3 mps 748 mmHg 40%
    15:00 +5°C° 0 mm 3 mps 747 mmHg 43%
    16:00 +4°C° 0 mm 3 mps 747 mmHg 47%
    17:00 +3°C° 0 mm 3 mps 746 mmHg 50%
    18:00 +3°C° 0 mm 3 mps 746 mmHg 50%
    19:00 +2°C° 0 mm 3 mps 745 mmHg 51%
    20:00 +2°C° 0 mm 3 mps 745 mmHg 51%
    21:00 +2°C° 0 mm 3 mps 745 mmHg 51%
    22:00 +2°C° 0 mm 3 mps 745 mmHg 51%
    23:00 0°C° 0 mm 4 mps 744 mmHg 51%

    23 January, Thursday

    Time Temperature Precipitation Wind Pressure Humidity
    00:00 0°C° 0 mm 4 mps 745 mmHg 52%
    01:00 -1°C° 0 mm 4 mps 745 mmHg 54%
    02:00 -1°C° 0 mm 4 mps 745 mmHg 55%
    03:00 -2°C° 0 mm 4 mps 745 mmHg 61%
    04:00 -1°C° 0 mm 3 mps 746 mmHg 67%
    05:00 -2°C° 0 mm 3 mps 746 mmHg 73%
    06:00 -2°C° 0 mm 2 mps 747 mmHg 75%
    07:00 -2°C° 0 mm 2 mps 748 mmHg 77%
    08:00 -2°C° 0 mm 2 mps 749 mmHg 79%
    09:00 -1°C° 0 mm 2 mps 749 mmHg 73%
    10:00 +1°C° 0 mm 3 mps 750 mmHg 67%
    11:00 +2°C° 0 mm 3 mps 750 mmHg 62%
    12:00 +3°C° 0 mm 3 mps 750 mmHg 59%
    13:00 +3°C° 0 mm 3 mps 750 mmHg 57%
    14:00 +4°C° 0 mm 4 mps 750 mmHg 55%
    15:00 +3°C° 0 mm 3 mps 750 mmHg 59%
    16:00 +3°C° 0 mm 2 mps 751 mmHg 63%
    17:00 +3°C° 0 mm 2 mps 751 mmHg 67%
    18:00 +3°C° 0 mm 1 mps 751 mmHg 69%
    19:00 +2°C° 0 mm 1 mps 752 mmHg 71%
    20:00 +2°C° 0 mm 1 mps 752 mmHg 74%
    21:00 +2°C° 0 mm 1 mps 753 mmHg 74%
    22:00 +1°C° 0 mm 1 mps 754 mmHg 75%
    23:00 +1°C° 0 mm 1 mps 754 mmHg 75%

    24 January, Friday

    Time Temperature Precipitation Wind Pressure Humidity
    00:00 +1°C° 0 mm 1 mps 754 mmHg 76%
    01:00 +1°C° 0 mm 1 mps 754 mmHg 76%
    02:00 0°C° 0 mm 1 mps 754 mmHg 76%
    03:00 0°C° 0 mm 1 mps 754 mmHg 76%
    04:00 0°C° 0 mm 1 mps 754 mmHg 75%
    05:00 -2°C° 0 mm 2 mps 754 mmHg 75%
    06:00 -2°C° 0 mm 2 mps 754 mmHg 75%
    07:00 -2°C° 0 mm 2 mps 754 mmHg 75%
    08:00 -2°C° 0 mm 2 mps 754 mmHg 75%
    09:00 -1°C° 0 mm 2 mps 754 mmHg 68%
    10:00 +2°C° 0 mm 2 mps 754 mmHg 62%
    11:00 +4°C° 0 mm 2 mps 754 mmHg 56%
    12:00 +5°C° 0 mm 2 mps 753 mmHg 53%
    13:00 +5°C° 0 mm 2 mps 752 mmHg 50%
    14:00 +7°C° 0 mm 1 mps 751 mmHg 47%
    15:00 +6°C° 0 mm 1 mps 751 mmHg 51%
    16:00 +5°C° 0 mm 1 mps 751 mmHg 56%
    17:00 +4°C° 0 mm 1 mps 750 mmHg 61%
    18:00 +4°C° 0 mm 1 mps 750 mmHg 64%
    19:00 +3°C° 0 mm 1 mps 750 mmHg 66%
    20:00 +2°C° 0 mm 1 mps 750 mmHg 69%
    21:00 +2°C° 0 mm 1 mps 749 mmHg 69%
    22:00 +2°C° 0 mm 1 mps 749 mmHg 69%
    23:00 +2°C° 0 mm 1 mps 749 mmHg 70%

    25 January, Saturday

    Time Temperature Precipitation Wind Pressure Humidity
    00:00 +2°C° 0 mm 1 mps 748 mmHg 69%
    01:00 +2°C° 0 mm 1 mps 748 mmHg 69%
    02:00 +2°C° 0 mm 1 mps 747 mmHg 69%
    03:00 +2°C° 0 mm 1 mps 747 mmHg 68%
    04:00 +2°C° 0 mm 1 mps 747 mmHg 67%
    05:00 +2°C° 0 mm 1 mps 746 mmHg 66%
    06:00 +2°C° 0 mm 1 mps 746 mmHg 63%
    07:00 +2°C° 0 mm 1 mps 746 mmHg 61%
    08:00 +2°C° 0 mm 1 mps 746 mmHg 59%
    09:00 +5°C° 0 mm 1 mps 746 mmHg 52%
    10:00 +7°C° 0 mm 1 mps 746 mmHg 46%
    11:00 +9°C° 0 mm 1 mps 746 mmHg 39%
    12:00 +10°C° 0 mm 1 mps 746 mmHg 38%
    13:00 +10°C° 0 mm 1 mps 745 mmHg 37%
    14:00 +10°C° 0 mm 2 mps 745 mmHg 36%
    15:00 +9°C° 0 mm 2 mps 745 mmHg 41%
    16:00 +9°C° 0 mm 1 mps 745 mmHg 45%
    17:00 +8°C° 0 mm 1 mps 745 mmHg 49%
    18:00 +7°C° 0 mm 1 mps 745 mmHg 49%
    19:00 +6°C° 0 mm 2 mps 745 mmHg 49%
    20:00 +6°C° 0 mm 2 mps 745 mmHg 48%
    21:00 +6°C° 0 mm 2 mps 745 mmHg 50%
    22:00 +7°C° 0 mm 1 mps 745 mmHg 51%
    23:00 +7°C° 0 mm 1 mps 745 mmHg 52%
    Show more